Time,TemperatureF,DewpointF,PressureIn,WindDirection,WindDirectionDegrees,WindSpeedMPH,WindSpeedGustMPH,Humidity,HourlyPrecipIn,Conditions,Clouds,dailyrainin,SoftwareType,DateUTC
2013-01-11 00:04:00,45.7,45.0,29.89,SE,125,9.0,-999.0,96,-99.99,,,0.30,weatherlink.com 1.10,2013-01-11 06:04:00,
2013-01-11 00:19:00,46.4,45.0,29.87,SE,132,15.0,-999.0,96,-99.99,,,0.30,weatherlink.com 1.10,2013-01-11 06:19:00,
2013-01-11 00:34:00,47.2,46.0,29.86,SE,138,11.0,-999.0,96,-99.99,,,0.30,weatherlink.com 1.10,2013-01-11 06:34:00,
2013-01-11 00:49:00,48.0,47.0,29.84,ESE,119,13.0,-999.0,96,-99.99,,,0.32,weatherlink.com 1.10,2013-01-11 06:49:00,
2013-01-11 01:05:00,48.5,48.0,29.84,SE,135,6.0,-999.0,96,-99.99,,,0.34,weatherlink.com 1.10,2013-01-11 07:05:00,
2013-01-11 01:20:00,49.0,48.0,29.83,SSE,148,12.0,-999.0,96,-99.99,,,0.34,weatherlink.com 1.10,2013-01-11 07:20:00,
2013-01-11 01:35:00,49.6,49.0,29.83,SSE,157,9.0,-999.0,97,-99.99,,,0.01,weatherlink.com 1.10,2013-01-11 07:35:00,
2013-01-11 01:50:00,50.1,49.0,29.82,SE,142,9.0,-999.0,97,-99.99,,,0.01,weatherlink.com 1.10,2013-01-11 07:50:00,
2013-01-11 02:05:00,50.6,50.0,29.82,SSE,153,7.0,-999.0,97,-99.99,,,0.01,weatherlink.com 1.10,2013-01-11 08:05:00,
2013-01-11 02:20:00,51.0,50.0,29.82,SE,126,7.0,-999.0,96,-99.99,,,0.08,weatherlink.com 1.10,2013-01-11 08:20:00,
2013-01-11 02:35:00,52.1,51.0,29.81,SSE,150,7.0,-999.0,97,-99.99,,,0.10,weatherlink.com 1.10,2013-01-11 08:35:00,
2013-01-11 02:50:00,52.7,52.0,29.79,SSE,166,7.0,-999.0,97,-99.99,,,0.11,weatherlink.com 1.10,2013-01-11 08:50:00,
2013-01-11 03:05:00,53.3,53.0,29.80,SSE,147,7.0,-999.0,97,-99.99,,,0.11,weatherlink.com 1.10,2013-01-11 09:05:00,
2013-01-11 03:20:00,54.2,53.0,29.79,SSE,153,6.0,-999.0,97,-99.99,,,0.11,weatherlink.com 1.10,2013-01-11 09:20:00,
2013-01-11 03:35:00,54.4,54.0,29.73,SE,136,6.0,-999.0,97,-99.99,,,0.11,weatherlink.com 1.10,2013-01-11 09:35:00,
2013-01-11 03:50:00,54.5,54.0,29.73,SE,144,12.0,-999.0,97,-99.99,,,0.11,weatherlink.com 1.10,2013-01-11 09:50:00,
2013-01-11 04:05:00,54.3,54.0,29.73,SSE,166,2.0,-999.0,97,-99.99,,,0.11,weatherlink.com 1.10,2013-01-11 10:05:00,
2013-01-11 04:20:00,53.9,53.0,29.74,SE,144,8.0,-999.0,97,-99.99,,,0.11,weatherlink.com 1.10,2013-01-11 10:20:00,
2013-01-11 04:35:00,54.2,53.0,29.73,SE,139,4.0,-999.0,96,-99.99,,,0.11,weatherlink.com 1.10,2013-01-11 10:35:00,
2013-01-11 04:50:00,54.3,53.0,29.73,South,185,2.0,-999.0,96,-99.99,,,0.11,weatherlink.com 1.10,2013-01-11 10:50:00,
2013-01-11 05:06:00,54.9,54.0,29.74,SSW,193,8.0,-999.0,96,-99.99,,,0.11,weatherlink.com 1.10,2013-01-11 11:06:00,
2013-01-11 05:21:00,55.1,54.0,29.74,SSE,155,10.0,-999.0,96,-99.99,,,0.11,weatherlink.com 1.10,2013-01-11 11:21:00,
2013-01-11 05:36:00,55.4,54.0,29.75,South,180,11.0,-999.0,95,-99.99,,,0.11,weatherlink.com 1.10,2013-01-11 11:36:00,
2013-01-11 05:51:00,55.0,53.0,29.76,SSW,213,12.0,-999.0,94,-99.99,,,0.11,weatherlink.com 1.10,2013-01-11 11:51:00,
2013-01-11 06:05:00,54.5,53.0,29.76,SW,216,7.0,-999.0,93,-99.99,,,0.11,weatherlink.com 1.10,2013-01-11 12:05:00,
2013-01-11 06:20:00,53.9,52.0,29.77,SSW,194,13.0,-999.0,93,-99.99,,,0.11,weatherlink.com 1.10,2013-01-11 12:20:00,
2013-01-11 06:35:00,53.6,52.0,29.78,South,188,12.0,-999.0,93,-99.99,,,0.11,weatherlink.com 1.10,2013-01-11 12:35:00,
2013-01-11 06:50:00,53.2,51.0,29.78,SSW,205,5.0,-999.0,93,-99.99,,,0.11,weatherlink.com 1.10,2013-01-11 12:50:00,
2013-01-11 07:06:00,52.5,51.0,29.79,SW,217,5.0,-999.0,93,-99.99,,,0.11,weatherlink.com 1.10,2013-01-11 13:06:00,
2013-01-11 07:21:00,51.9,50.0,29.80,SW,214,4.0,-999.0,93,-99.99,,,0.11,weatherlink.com 1.10,2013-01-11 13:21:00,
2013-01-11 07:36:00,51.2,49.0,29.79,SSW,204,6.0,-999.0,92,-99.99,,,0.11,weatherlink.com 1.10,2013-01-11 13:36:00,
2013-01-11 07:51:00,50.9,49.0,29.79,SW,219,10.0,-999.0,92,-99.99,,,0.11,weatherlink.com 1.10,2013-01-11 13:51:00,
2013-01-11 08:06:00,50.6,48.0,29.82,SW,214,7.0,-999.0,92,-99.99,,,0.11,weatherlink.com 1.10,2013-01-11 14:06:00,
2013-01-11 08:21:00,50.8,49.0,29.82,SSW,196,7.0,-999.0,92,-99.99,,,0.11,weatherlink.com 1.10,2013-01-11 14:21:00,
2013-01-11 08:36:00,50.8,48.0,29.82,WSW,238,9.0,-999.0,91,-99.99,,,0.11,weatherlink.com 1.10,2013-01-11 14:36:00,
2013-01-11 08:51:00,51.0,49.0,29.82,SW,224,9.0,-999.0,91,-99.99,,,0.11,weatherlink.com 1.10,2013-01-11 14:51:00,
2013-01-11 09:06:00,51.4,49.0,29.83,SW,223,1.0,-999.0,91,-99.99,,,0.11,weatherlink.com 1.10,2013-01-11 15:06:00,
2013-01-11 09:21:00,51.5,49.0,29.83,SW,220,3.0,-999.0,90,-99.99,,,0.11,weatherlink.com 1.10,2013-01-11 15:21:00,
2013-01-11 09:36:00,51.3,48.0,29.84,SW,227,12.0,-999.0,89,-99.99,,,0.11,weatherlink.com 1.10,2013-01-11 15:36:00,
2013-01-11 09:51:00,51.7,49.0,29.85,WSW,252,11.0,-999.0,89,-99.99,,,0.11,weatherlink.com 1.10,2013-01-11 15:51:00,
2013-01-11 10:21:00,51.7,48.0,29.85,SW,230,3.0,-999.0,88,-99.99,,,0.11,weatherlink.com 1.10,2013-01-11 16:21:00,
2013-01-11 10:36:00,51.6,48.0,29.84,SW,232,10.0,-999.0,88,-99.99,,,0.11,weatherlink.com 1.10,2013-01-11 16:36:00,
2013-01-11 10:51:00,51.8,49.0,29.84,WSW,249,7.0,-999.0,89,-99.99,,,0.11,weatherlink.com 1.10,2013-01-11 16:51:00,
2013-01-11 11:06:00,51.8,48.0,29.84,SW,229,11.0,-999.0,88,-99.99,,,0.11,weatherlink.com 1.10,2013-01-11 17:06:00,
2013-01-11 11:21:00,51.9,48.0,29.84,SSW,200,3.0,-999.0,87,-99.99,,,0.11,weatherlink.com 1.10,2013-01-11 17:21:00,
2013-01-11 11:36:00,51.7,48.0,29.83,WSW,243,7.0,-999.0,86,-99.99,,,0.11,weatherlink.com 1.10,2013-01-11 17:36:00,
2013-01-11 11:51:00,51.5,48.0,29.81,SSW,209,5.0,-999.0,86,-99.99,,,0.11,weatherlink.com 1.10,2013-01-11 17:51:00,
2013-01-11 12:06:00,52.0,48.0,29.81,SW,222,5.0,-999.0,87,-99.99,,,0.11,weatherlink.com 1.10,2013-01-11 18:06:00,
2013-01-11 12:21:00,52.0,48.0,29.81,WSW,244,5.0,-999.0,87,-99.99,,,0.11,weatherlink.com 1.10,2013-01-11 18:21:00,
2013-01-11 12:36:00,52.3,49.0,29.82,SW,221,11.0,-999.0,88,-99.99,,,0.11,weatherlink.com 1.10,2013-01-11 18:36:00,
2013-01-11 12:51:00,52.7,49.0,29.81,SSW,198,6.0,-999.0,87,-99.99,,,0.11,weatherlink.com 1.10,2013-01-11 18:51:00,
2013-01-11 13:06:00,52.9,49.0,29.80,SW,229,11.0,-999.0,87,-99.99,,,0.11,weatherlink.com 1.10,2013-01-11 19:06:00,
2013-01-11 13:21:00,53.5,49.0,29.80,SSW,193,9.0,-999.0,85,-99.99,,,0.11,weatherlink.com 1.10,2013-01-11 19:21:00,
2013-01-11 13:36:00,53.9,50.0,29.80,SSW,213,6.0,-999.0,85,-99.99,,,0.11,weatherlink.com 1.10,2013-01-11 19:36:00,
2013-01-11 13:51:00,54.1,50.0,29.81,SSW,196,6.0,-999.0,86,-99.99,,,0.12,weatherlink.com 1.10,2013-01-11 19:51:00,
2013-01-11 14:06:00,54.9,50.0,29.80,South,186,5.0,-999.0,84,-99.99,,,0.12,weatherlink.com 1.10,2013-01-11 20:06:00,
2013-01-11 14:21:00,55.2,50.0,29.80,SSW,206,3.0,-999.0,83,-99.99,,,0.12,weatherlink.com 1.10,2013-01-11 20:21:00,
2013-01-11 14:36:00,56.0,51.0,29.79,South,178,9.0,-999.0,82,-99.99,,,0.12,weatherlink.com 1.10,2013-01-11 20:36:00,
2013-01-11 14:51:00,56.1,51.0,29.80,SW,215,11.0,-999.0,82,-99.99,,,0.12,weatherlink.com 1.10,2013-01-11 20:51:00,
2013-01-11 15:07:00,56.1,50.0,29.80,SSW,208,5.0,-999.0,81,-99.99,,,0.12,weatherlink.com 1.10,2013-01-11 21:07:00,
2013-01-11 15:22:00,56.0,51.0,29.81,SSE,166,6.0,-999.0,82,-99.99,,,0.12,weatherlink.com 1.10,2013-01-11 21:22:00,
2013-01-11 15:37:00,55.7,50.0,29.80,SSW,206,6.0,-999.0,82,-99.99,,,0.12,weatherlink.com 1.10,2013-01-11 21:37:00,
2013-01-11 15:52:00,55.2,50.0,29.80,SE,142,3.0,-999.0,83,-99.99,,,0.12,weatherlink.com 1.10,2013-01-11 21:52:00,
2013-01-11 16:07:00,54.9,50.0,29.80,SSE,163,5.0,-999.0,83,-99.99,,,0.12,weatherlink.com 1.10,2013-01-11 22:07:00,
2013-01-11 16:22:00,54.8,50.0,29.80,SSW,192,4.0,-999.0,83,-99.99,,,0.12,weatherlink.com 1.10,2013-01-11 22:22:00,
2013-01-11 16:37:00,54.2,50.0,29.80,SSW,192,11.0,-999.0,84,-99.99,,,0.12,weatherlink.com 1.10,2013-01-11 22:37:00,
2013-01-11 16:52:00,53.8,49.0,29.79,South,184,6.0,-999.0,85,-99.99,,,0.12,weatherlink.com 1.10,2013-01-11 22:52:00,
2013-01-11 17:06:00,53.3,49.0,29.78,SSE,164,6.0,-999.0,86,-99.99,,,0.12,weatherlink.com 1.10,2013-01-11 23:06:00,
2013-01-11 17:21:00,53.1,49.0,29.79,SSE,151,11.0,-999.0,87,-99.99,,,0.12,weatherlink.com 1.10,2013-01-11 23:21:00,
2013-01-11 17:36:00,53.1,49.0,29.79,SSE,161,9.0,-999.0,87,-99.99,,,0.12,weatherlink.com 1.10,2013-01-11 23:36:00,
2013-01-11 17:51:00,53.0,50.0,29.78,South,173,11.0,-999.0,88,-99.99,,,0.12,weatherlink.com 1.10,2013-01-11 23:51:00,
2013-01-11 18:06:00,53.0,49.0,29.78,SE,142,13.0,-999.0,87,-99.99,,,0.12,weatherlink.com 1.10,2013-01-12 00:06:00,
2013-01-11 18:22:00,52.8,49.0,29.79,South,171,4.0,-999.0,87,-99.99,,,0.12,weatherlink.com 1.10,2013-01-12 00:22:00,
2013-01-11 18:37:00,52.8,49.0,29.78,South,169,3.0,-999.0,88,-99.99,,,0.12,weatherlink.com 1.10,2013-01-12 00:37:00,
2013-01-11 18:52:00,52.7,49.0,29.78,South,188,5.0,-999.0,88,-99.99,,,0.12,weatherlink.com 1.10,2013-01-12 00:52:00,
2013-01-11 19:07:00,52.5,49.0,29.78,South,170,8.0,-999.0,88,-99.99,,,0.12,weatherlink.com 1.10,2013-01-12 01:07:00,
2013-01-11 19:22:00,52.7,49.0,29.78,South,190,10.0,-999.0,88,-99.99,,,0.12,weatherlink.com 1.10,2013-01-12 01:22:00,
2013-01-11 19:37:00,53.2,50.0,29.78,South,169,14.0,-999.0,87,-99.99,,,0.12,weatherlink.com 1.10,2013-01-12 01:37:00,
2013-01-11 19:52:00,53.1,49.0,29.78,SSW,210,2.0,-999.0,87,-99.99,,,0.12,weatherlink.com 1.10,2013-01-12 01:52:00,
2013-01-11 20:07:00,53.0,49.0,29.78,South,173,10.0,-999.0,87,-99.99,,,0.12,weatherlink.com 1.10,2013-01-12 02:07:00,
2013-01-11 20:22:00,52.9,49.0,29.78,SSW,199,12.0,-999.0,87,-99.99,,,0.12,weatherlink.com 1.10,2013-01-12 02:22:00,
2013-01-11 20:36:00,52.8,49.0,29.78,South,180,2.0,-999.0,87,-99.99,,,0.12,weatherlink.com 1.10,2013-01-12 02:36:00,
2013-01-11 20:52:00,52.6,49.0,29.78,South,191,10.0,-999.0,87,-99.99,,,0.12,weatherlink.com 1.10,2013-01-12 02:52:00,
2013-01-11 21:07:00,52.6,49.0,29.77,SW,215,6.0,-999.0,87,-99.99,,,0.12,weatherlink.com 1.10,2013-01-12 03:07:00,
2013-01-11 21:22:00,52.5,49.0,29.78,SSE,167,7.0,-999.0,87,-99.99,,,0.12,weatherlink.com 1.10,2013-01-12 03:22:00,
2013-01-11 21:37:00,52.2,49.0,29.79,South,186,10.0,-999.0,87,-99.99,,,0.12,weatherlink.com 1.10,2013-01-12 03:37:00,
2013-01-11 21:52:00,52.0,48.0,29.78,SSE,168,12.0,-999.0,87,-99.99,,,0.12,weatherlink.com 1.10,2013-01-12 03:52:00,
2013-01-11 22:07:00,51.9,48.0,29.78,SSE,157,13.0,-999.0,87,-99.99,,,0.12,weatherlink.com 1.10,2013-01-12 04:07:00,
2013-01-11 22:22:00,51.6,48.0,29.78,South,179,3.0,-999.0,87,-99.99,,,0.12,weatherlink.com 1.10,2013-01-12 04:22:00,
2013-01-11 22:37:00,51.8,48.0,29.78,SE,136,6.0,-999.0,87,-99.99,,,0.12,weatherlink.com 1.10,2013-01-12 04:37:00,
2013-01-11 22:52:00,51.9,48.0,29.78,SSE,147,5.0,-999.0,87,-99.99,,,0.12,weatherlink.com 1.10,2013-01-12 04:52:00,
2013-01-11 23:07:00,51.9,48.0,29.78,South,184,5.0,-999.0,87,-99.99,,,0.12,weatherlink.com 1.10,2013-01-12 05:07:00,
2013-01-11 23:22:00,51.7,48.0,29.78,South,176,10.0,-999.0,87,-99.99,,,0.12,weatherlink.com 1.10,2013-01-12 05:22:00,
2013-01-11 23:37:00,51.5,48.0,29.79,South,183,5.0,-999.0,87,-99.99,,,0.12,weatherlink.com 1.10,2013-01-12 05:37:00,
2013-01-11 23:52:00,51.3,48.0,29.80,SSW,199,4.0,-999.0,87,-99.99,,,0.12,weatherlink.com 1.10,2013-01-12 05:52:00,